Home   Weather   Howell   Past weeks

Flag for USA Past Weather in Howell, Michigan, USA — Yesterday and Last 2 Weeks

Now
81 °F

Broken clouds.


Feels Like: 84 °F
Forecast: 68 / 80 °F
Wind: 9 mph from Southwest

Location: Livingston County Airport

Current Time: Aug 17, 2017 at 7:30:01 pm

Latest Report: Aug 17, 2017 at 6:55 pm


Visibility: 10 mi

Pressure: 29.71 "Hg

Humidity: 68%

Dew Point: 69 °F

Location of HowellLocation

Past Weather in Howell — Graph

°F

Howell Temperature Yesterday

Maximum temperature yesterday: 84 °F (at 4:34 pm)
Minimum temperature yesterday: 60 °F (at 6:15 am)
Average temperature yesterday: 72 °F

High & Low Weather Summary for the Past Weeks

 TemperatureHumidityPressure
High84 °F (Aug 10, 3:55 pm)99% (Aug 13, 3:54 am)30.21 "Hg (Aug 13, 3:54 am)
Low49 °F (Aug 8, 4:54 am)28% (Aug 10, 3:55 pm)29.71 "Hg (Aug 17, 5:55 pm)
Average69 °F71%30.00 "Hg
* Reported Aug 2 6:14 pm — Aug 17 6:15 pm, Howell. Weather by CustomWeather, © 2017

Note: Actual official high and low records may vary slightly from our data, if they occured in-between our weather recording intervals... More about our weather records

Advertising

Howell Weather History for the Previous 24 Hours

Scroll right to see more
 ConditionsComfort  
Time TempWeatherWind HumidityBarometerVisibility
6:15 pm
Thu, Aug 17
82 °FScattered clouds.12 mph68%29.71 "Hg10 mi
5:55 pm81 °FScattered clouds.12 mph71%29.71 "Hg10 mi
5:34 pm81 °FScattered clouds.10 mph70%29.72 "Hg10 mi
5:15 pm81 °FScattered clouds.10 mph70%29.72 "Hg10 mi
4:55 pm82 °FPartly sunny.13 mph69%29.73 "Hg10 mi
4:35 pm80 °FPartly sunny.8 mph72%29.74 "Hg10 mi
4:15 pm82 °FPartly sunny.10 mph68%29.75 "Hg10 mi
3:54 pm80 °FBroken clouds.13 mph73%29.75 "Hg10 mi
3:35 pm81 °FScattered clouds.10 mph73%29.75 "Hg10 mi
3:15 pm79 °FPartly sunny.15 mph78%29.76 "Hg10 mi
2:54 pm77 °FMostly cloudy.14 mph84%29.77 "Hg10 mi
2:35 pm76 °FMostly cloudy.12 mph87%29.78 "Hg10 mi
1:55 pm74 °FDrizzle. Cloudy.8 mph93%29.80 "Hg4 mi
1:35 pm74 °FLight rain. Mostly cloudy.8 mph92%29.82 "Hg5 mi
1:14 pm75 °FLight rain. Cloudy.7 mph91%29.82 "Hg4 mi
12:55 pm75 °FLight rain. Cloudy.8 mph90%29.83 "Hg4 mi
12:35 pm76 °FLight rain. Mostly cloudy.8 mph86%29.83 "Hg7 mi
12:14 pm76 °FDrizzle. Mostly cloudy.8 mph85%29.83 "Hg7 mi
11:55 am76 °FLight rain. Overcast.8 mph85%29.83 "Hg7 mi
11:35 am76 °FMostly cloudy.7 mph85%29.84 "Hg7 mi
11:15 am75 °FMostly cloudy.12 mph87%29.84 "Hg7 mi
10:55 am74 °FFog.10 mph91%29.84 "Hg5 mi
10:34 am72 °FFog.7 mph93%29.85 "Hg4 mi
10:15 am71 °FFog.7 mph94%29.85 "Hg5 mi
9:34 am70 °FFog.6 mph95%29.87 "Hg5 mi
8:55 am69 °FFog.6 mph95%29.88 "Hg5 mi
8:35 am69 °FFog.7 mph95%29.88 "Hg5 mi
7:54 am68 °FScattered clouds.7 mph94%29.88 "Hg7 mi
7:35 am68 °FCloudy.7 mph95%29.88 "Hg7 mi
7:14 am67 °FCloudy.7 mph95%29.88 "Hg7 mi
6:55 am67 °FHeavy rain. Cloudy.6 mph95%29.89 "Hg2 mi
6:35 am67 °FHeavy rain. Mostly cloudy.8 mph93%29.90 "Hg2 mi
6:14 am68 °FLight rain. Overcast.6 mph90%29.91 "Hg7 mi
5:55 am70 °FMostly cloudy.9 mph83%29.90 "Hg10 mi
5:35 am71 °FRain. Overcast.10 mph75%29.90 "Hg10 mi
5:15 am72 °FOvercast.10 mph68%29.91 "Hg10 mi
4:55 am72 °FPartly cloudy.10 mph67%29.90 "Hg10 mi
4:34 am72 °FPartly cloudy.10 mph65%29.91 "Hg10 mi
4:15 am72 °FPassing clouds.10 mph63%29.91 "Hg10 mi
3:54 am72 °FMostly cloudy.12 mph62%29.91 "Hg10 mi
3:35 am72 °FPartly cloudy.12 mph61%29.92 "Hg10 mi
2:54 am71 °FClear.12 mph61%29.94 "Hg10 mi
2:35 am71 °FClear.10 mph61%29.95 "Hg10 mi
1:55 am70 °FClear.10 mph62%29.96 "Hg10 mi
1:35 am70 °FClear.10 mph62%29.97 "Hg10 mi
1:14 am70 °FClear.10 mph62%29.97 "Hg10 mi
12:55 am70 °FClear.9 mph62%29.98 "Hg10 mi
12:35 am71 °FClear.12 mph62%29.98 "Hg10 mi
12:14 am70 °FClear.8 mph64%29.98 "Hg10 mi
11:55 pm
Wed, Aug 16
70 °FClear.9 mph64%29.99 "Hg10 mi
11:35 pm71 °FClear.7 mph65%30.00 "Hg10 mi
11:15 pm71 °FClear.8 mph64%30.00 "Hg10 mi
10:55 pm71 °FClear.8 mph63%30.00 "Hg10 mi
10:34 pm71 °FPassing clouds.9 mph63%30.00 "Hg10 mi
10:15 pm72 °FPassing clouds.8 mph62%30.01 "Hg10 mi
9:54 pm73 °FClear.9 mph61%30.01 "Hg10 mi
9:35 pm74 °FClear.9 mph61%30.00 "Hg10 mi
8:54 pm75 °FClear.9 mph61%30.00 "Hg10 mi
8:35 pm76 °FSunny.7 mph59%29.99 "Hg10 mi
8:15 pm78 °FSunny.7 mph55%29.99 "Hg10 mi
7:54 pm79 °FSunny.8 mph52%29.99 "Hg10 mi
7:35 pm80 °FSunny.8 mph51%29.99 "Hg10 mi
7:14 pm81 °FSunny.8 mph49%29.99 "Hg10 mi
Weather by CustomWeather, © 2017

See weather overviewHow to use our weather pages